Regional Weather Roundup
Issued by NWS

Current Version | Previous Version | Text Only | Print | Product List | Glossary On
Versions: 1 2 3 4 5 6 7 8 9 10 11 12 13 14 15 16 17 18 19 20 21 22 23 24 25 26 27 28 29 30 31 32 33 34 35 36 37 38 39 40 41 42 43 44 45 46 47 48 49 50
795
ASUS44 KFWD 070101
RWRTX
NORTH TEXAS HOURLY WEATHER ROUNDUP
NATIONAL WEATHER SERVICE FORT WORTH TX
800 PM CDT FRI MAY 06 2016

NOTE: "FAIR" INDICATES FEW OR NO CLOUDS BELOW 12,000 FEET WITH NO
SIGNIFICANT WEATHER AND/OR OBSTRUCTIONS TO VISIBILITY.

TXZ118-119-070200-
DALLAS/FORT WORTH METROPLEX

CITY           SKY/WX    TMP DP  RH WIND       PRES   REMARKS
DFW AIRPORT    CLEAR     75  51  43 SE9       29.97F
DALLAS LOVE    CLEAR     78  49  35 SE10      29.98F
FTW MEACHAM    CLEAR     77  52  41 SE9       29.97F
DAL-EXECUTIVE  CLEAR     74  52  46 SE7       29.98F
FTW-ALLIANCE   CLEAR     73  52  47 SE5       29.97F
FTW-NAS-JRB    CLEAR     79  49  34 S9        29.98F
ARLINGTON      CLEAR     78  53  41 E8        29.98F
GRAND PRAIRIE  CLEAR     77  48  36 SE6       30.00S
ADDISON        CLEAR     79  48  34 E10       29.99F
MESQUITE       CLEAR     75  52  43 E3        29.99F
LANCASTER      CLEAR     77  51  39 SE3       30.00S
$$

TXZ091>094-102>105-117-120-121-131>134-070200-
NORTH CENTRAL TEXAS

CITY           SKY/WX    TMP DP  RH WIND       PRES   REMARKS
BRIDGEPORT     CLEAR     75  56  51 S3        29.99F
DECATUR        CLEAR     74  54  48 SE5       29.99S
DENTON         CLEAR     76  52  43 SE7       29.97F
MCKINNEY       CLEAR     74  53  48 SE7       29.99F
ROCKWALL       CLEAR     74  55  52 E12       29.99S
TERRELL        CLEAR     77  53  43 E5        30.00S
WAXAHACHIE     CLEAR     75  56  50 CALM      30.00S
GRANBURY       CLEAR     80  51  37 SE7       29.99S
$$

TXZ083>090-098>101-113>116-127>130-139>142-154-155-070200-
WESTERN NORTH TEXAS

CITY           SKY/WX    TMP DP  RH WIND       PRES   REMARKS
WICHITA FALLS  CLEAR     75  51  43 SE9       29.95F
WF-KICKAPOO    CLEAR     78  51  38 SE8       29.97S
ABILENE        CLEAR     77  50  38 SE14      29.97
MINERAL WELLS  CLEAR     74  54  49 SE6       29.96F
STEPHENVILLE   CLEAR     76  49  39 SE5       30.02S
COMANCHE       CLEAR     74  53  47 SE7       29.99S
COLEMAN        CLEAR     78  48  34 SE12      29.98S
$$

TXZ143>147-156>162-174-175-070200-
CENTRAL TEXAS

CITY           SKY/WX    TMP DP  RH WIND       PRES   REMARKS
WACO           CLEAR     75  56  51 SE6       29.99R
WACO-TSTC      CLEAR     77  57  50 E5        29.99
WACO-MCGREGOR  CLEAR     78  55  44 SE7       29.99S
HILLSBORO      CLEAR     75  55  49 E6        29.99S
CORSICANA      CLEAR     77  55  46 CALM      30.00F
HEARNE         CLEAR     78  54  43 CALM      30.00S
TEMPLE         CLEAR     75  55  49 SE7       29.99F
KILLEEN        NOT AVBL
KILLEEN-SKYLRK CLEAR     77  51  40 SE6       29.99F
HAMILTON       CLEAR     75  52  43 SE7       30.01S
$$

TXZ095>097-106>112-122>126-135>138-148>153-164>167-070200-
EAST TEXAS

CITY           SKY/WX    TMP DP  RH WIND       PRES   REMARKS
PARIS          CLEAR     73  50  43 E5        30.01F
GILMER         CLEAR     72  53  51 CALM      30.01S
MINEOLA        CLEAR     72  59  64 CALM      30.01F
TYLER          CLEAR     76  49  38 E5        30.00F
LONGVIEW       CLEAR     72  55  55 E5        30.00S
PALESTINE      CLEAR     76  56  49 E3        30.00F
JACKSONVILLE   CLEAR     75  51  42 CALM      30.03S
NACOGDOCHES    CLEAR     72  55  56 E3        30.00S
LUFKIN         CLEAR     72  58  61 CALM      30.00S
$$

SUPPLEMENTAL OBSERVATIONS (CENTRAL)

CITY           SKY/WX    TMP DP  RH WIND       PRES   REMARKS
$$

SUPPLEMENTAL OBSERVATIONS (WEST)

CITY           SKY/WX    TMP DP  RH WIND       PRES   REMARKS
$$

SUPPLEMENTAL OBSERVATIONS (EAST)

CITY           SKY/WX    TMP DP  RH WIND       PRES   REMARKS
$$

SUPPLEMENTAL OBSERVATIONS ARE A COLLECTION OF AUTOMATED INSTRUMENTS
THAT ARE MAINTAINED BY A VARIETY OF FEDERAL AND STATE AGENCIES.
CERTAIN ELEMENTS...SUCH AS HUMIDITY VALUES AND SUSTAINED WIND
SPEEDS...MAY BE APPROXIMATED.





USA.gov is the U.S. government's official web portal to all federal, state and local government web resources and services.